Home   Weather   Braunau am Inn   Past weeks

Flag for Austria Past Weather in Braunau am Inn, Upper Austria, Austria — Yesterday and Last 2 Weeks

Now
35 °F

Low clouds.


Feels Like: N/A
Forecast: 23 / 33 °F
Wind: N/A

Location: Salzburg-Flughafen

Current Time: Dec 3, 2016 at 1:40:35 am

Latest Report: Dec 3, 2016 at 1:00 am


Visibility: 5 mi

Pressure: 30.23 "Hg

Humidity: 96%

Dew Point: 33 °F

Location of Braunau am InnLocation

Past Weather in Braunau am Inn — Graph

°F

Braunau am Inn Temperature Yesterday

Maximum temperature yesterday: 43 °F (at 12:00 pm)
Minimum temperature yesterday: 35 °F (at 10:00 pm)
Average temperature yesterday: 40 °F

High & Low Weather Summary for the Past Weeks

 TemperatureHumidityPressure
High71 °F (Nov 21, 2:00 pm)100% (Nov 18, 4:00 am)30.64 "Hg (Nov 18, 4:00 am)
Low17 °F (Nov 30, 7:00 am)30% (Nov 21, 2:00 pm)29.65 "Hg (Nov 21, 2:00 pm)
Average41 °F76%30.11 "Hg
* Reported Nov 18 12:00 am — Dec 3 12:00 am, Braunau am Inn, Weather by CustomWeather, © 2016

Note: Actual official high and low records may vary slightly from our data, if they occured in-between our weather recording intervals... More about our weather records

Advertising

Braunau am Inn Weather History for the Previous 24 Hours

Scroll right to see more
 ConditionsComfort  
Time TempWeatherWind HumidityBarometerVisibility
12:00 am
Sat, Dec 3
35 °FLow clouds.N/A94%30.23 "Hg7 mi
11:00 pm
Fri, Dec 2
35 °FRain showers. Overcast.N/A93%30.23 "Hg4 mi
10:00 pm35 °FLight rain. Low clouds.N/A94%30.23 "Hg4 mi
9:00 pm35 °FLight rain. Low clouds.N/A93%30.23 "Hg7 mi
8:00 pm37 °FRain showers. Low clouds.N/A92%30.23 "Hg4 mi
7:00 pm38 °FRain showers. Low clouds.5 mph93%30.21 "Hg6 mi
6:00 pm39 °FRain showers. Overcast.3 mph89%30.19 "Hg6 mi
4:00 pm41 °FRain showers. Overcast.5 mph80%30.16 "Hg16 mi
3:00 pm42 °FOvercast.5 mph72%30.15 "Hg31 mi
2:00 pm41 °FOvercast.7 mph74%30.15 "Hg31 mi
1:00 pm42 °FOvercast.5 mph66%30.15 "Hg28 mi
12:00 pm43 °FOvercast.7 mph62%30.14 "Hg31 mi
11:00 am42 °FOvercast.6 mph65%30.15 "Hg31 mi
10:00 am42 °FOvercast.6 mph63%30.16 "Hg31 mi
9:00 am42 °FOvercast.9 mph65%30.16 "Hg14 mi
8:00 am41 °FOvercast.6 mph67%30.16 "Hg28 mi
7:00 am41 °FOvercast.6 mph64%30.15 "Hg31 mi
6:00 am41 °FOvercast.6 mph60%30.16 "Hg31 mi
5:00 am41 °FOvercast.5 mph58%30.16 "Hg31 mi
4:00 am40 °FPassing clouds.6 mph57%30.16 "Hg31 mi
3:00 am40 °FPassing clouds.5 mph63%30.18 "Hg28 mi
2:00 am40 °FPassing clouds.5 mph60%30.20 "Hg31 mi
1:00 am39 °FPassing clouds.6 mph57%30.22 "Hg31 mi
Weather by CustomWeather, © 2016

See weather overviewHow to use our weather pages